Regional Weather Roundup
Issued by NWS Upton, NY

Current Version | Previous Version | Graphics & Text | Print | Product List | Glossary Off
Versions: 1 2 3 4 5 6 7 8 9 10 11 12 13 14 15 16 17 18 19 20 21 22 23 24 25 26 27 28 29 30 31 32 33 34 35 36 37 38 39 40 41 42 43 44 45 46 47 48 49 50

097
ASUS41 KOKX 171009
RWROKX

REGIONAL WEATHER ROUNDUP
NATIONAL WEATHER SERVICE NEW YORK NY
600 AM EDT TUE OCT 17 2017

NOTE: "FAIR" INDICATES FEW OR NO CLOUDS BELOW 12,000 FEET WITH NO
SIGNIFICANT WEATHER AND/OR OBSTRUCTIONS TO VISIBILITY.

NYZ071-072-176-178-NJZ106-104-171100-
NEW YORK CITY METRO AREA

CITY           SKY/WX    TMP DP  RH WIND       PRES   REMARKS
Central Park   CLEAR     43  33  68 NE3       30.32R
Bronx Bot Gard   N/A     39  34  81 SE1       30.30S
LaGuardia APRT CLEAR     46  35  65 N10       30.29R
Kennedy INTL   CLEAR     43  34  70 N9        30.30R
Breezy Point     N/A     45 N/A N/A N8G14       N/A
Newark/Liberty PTCLDY    42  32  67 N6        30.30R
Teterboro      CLEAR     41  32  70 N5        30.29R
$$

NYZ177-179-078>081-171100-
LONG ISLAND NEW YORK

CITY           SKY/WX    TMP DP  RH WIND       PRES   REMARKS
Jones Beach      N/A     45 N/A N/A N14         N/A
Matinecock PT    N/A     46 N/A N/A N16         N/A
Farmingdale    CLEAR     44  34  67 N6        30.28R
MacArthur/ISP  CLEAR     42  35  76 N5        30.27R
Shirley        CLEAR     41  37  86 CALM      30.27R
Mt Sinai Harb    N/A    N/A N/A N/A N14G20      N/A
Westhampton    CLEAR     44  33  65 N7        30.27R
East Hampton   FAIR      44  31  60 N8        30.25R
Montauk          N/A     48  35  60 N12G24    30.25
$$

NYZ052-065-067-171100-
HUDSON VALLEY

CITY           SKY/WX    TMP DP  RH WIND       PRES   REMARKS
White Plains   PTCLDY    38  32  79 NW3       30.28R
Larchmont Harb   N/A     41 N/A N/A NW7         N/A
Croton On Huds   N/A     37 N/A N/A NE3         N/A
Newburgh       NOT AVBL
Montgomery     CLEAR     34  31  88 CALM      30.29R
Poughkeepsie   CLEAR     31  29  92 CALM      30.30R
Albany         CLEAR     35  29  78 CALM      30.31R
$$

NJZ001-105-106-008-010-013-015-019>022-104-171100-
NEW JERSEY

CITY           SKY/WX    TMP DP  RH WIND       PRES   REMARKS
Newark/Liberty PTCLDY    42  32  67 N6        30.30R
Teterboro      CLEAR     41  32  70 N5        30.29R
Caldwell       CLEAR     35  34  96 CALM      30.30R
Somerville     CLEAR     34  32  92 CALM      30.30R
Linden         FAIR      40  32  72 N3        30.31R
Perth Amboy      N/A     41 N/A N/A N5          N/A
Sussex         CLEAR     31  30  96 CALM      30.30R
Andover          N/A     33  32  96 CALM      30.30R
Trenton        CLEAR     38  32  79 NW5       30.30R WCI  34
Millville      CLEAR     39  36  89 NW3       30.30R
Atlantic City  PTCLDY    39  35  86 N9        30.29R WCI  33
Wrightstown    CLEAR     36  32  87 N6        30.29R WCI  31
Toms River       N/A     36  33  89 NW7       30.30R WCI  30
Belmar         CLEAR     37  33  85 NW7       30.30R WCI  32
$$

PAZ047>061-062-071-171100-
EASTERN PENNSYLVANIA

CITY           SKY/WX    TMP DP  RH WIND       PRES   REMARKS
Philadelphia   CLEAR     42  33  70 N7        30.32R
Allentown      CLEAR     40  31  70 W5        30.32R
Scranton       CLEAR     33  31  92 CALM      30.31R
$$

CTZ002-004>006-009-010-012-RIZ004-006-007-MAZ004-011-015-171100-
SOUTHERN NEW ENGLAND
 IN CT

CITY           SKY/WX    TMP DP  RH WIND       PRES   REMARKS
Bradley INTL   CLEAR     36  31  82 NW8       30.27R WCI  30
Hartford       CLEAR     39  32  76 N6        30.28R WCI  35
Danbury        CLEAR     36  32  85 CALM      30.29R
Wtrbury/Oxford CLEAR     36  32  85 NW5       30.27R WCI  32
Norwalk Harbor   N/A     41 N/A N/A NW9         N/A
Bridgeport     CLEAR     40  34  79 NW3       30.28R
Meriden        CLEAR     37  32  82 CALM      30.28R
New Haven      CLEAR     37  31  78 CALM      30.28R
Chester        FAIR      37  34  87 NW5       30.25R WCI  34
Groton         CLEAR     38  32  79 N5        30.26R WCI  34
Wilimantic     CLEAR     34  32  92 N3        30.26R

 IN RI

CITY           SKY/WX    TMP DP  RH WIND       PRES   REMARKS
Providence     CLEAR     39  33  79 N9        30.25R WCI  33
Block Island   CLEAR     44  34  67 N13G21    30.24R
Westerly       CLEAR     38  34  85 CALM      30.26R
 IN MA

CITY           SKY/WX    TMP DP  RH WIND       PRES   REMARKS
Boston         PTCLDY    41  33  73 NW16      30.24R
Worcester      CLEAR     37  26  64 NW9       30.22R WCI  30
Westfield      CLEAR     32  32 100 CALM      30.28R
Provincetown   MOCLDY    48  32  53 N20G28    30.21R
Nantucket      CLOUDY    50  39  66 N18       30.17R
$$

ANZ330-335-338-340-345-350-353-355-171100-
COASTAL MARINE OBSERVATIONS


STATION/POSITION TIME  SKY/WX   TEMP    WIND        PRES    VSBY  WAVE
                                AIR SEA DIR/SP/G                  HT/PER
                 (UTC)          (F)     (DEG/KT/KT) (MB)    (MI)  (FT/S)
NY HARB ENTRANCE 0850            49 65  360/ 19/ 23 1023.3          3/ 4
20 S FIRE ISLAND 0950            50 64   10/ 17/ 21 1024.1          4/ 5
GREAT SOUTH BAY  0930            46 62  360/  8/ 12   N/A
15 E BARNEGAT LI 0930               67                N/A           4/ 5
HUDSON CANYON    0950            55 65   20/ 14/ 19 1022.1          6/ 6
KINGS POINT      0948            47 64   40/ 14/ 18 1026.3
EXECUTION ROCKS  0930            47      20/ 12/ 17   N/A
WESTERN LI SOUND 0849            46     360/ 14/ 17   N/A           1
CENTRAL LI SOUND 0930            47      20/ 14/ 17   N/A           2
EASTERN LI SOUND NOT AVBL
ROBBINS REEF     0948            44     340/  9/ 11 1026.3
$$


>>>>>>>>>>>>>>>>>>>>>>>>>>>> KEY <<<<<<<<<<<<<<<<<<<<<<<<<<<
>                                                          <
>     SKY/WX - Sky Condition/Present Weather               <
>     TMP    - Temperature in Fahrenheit                   <
>     DP     - Dew Point in Fahrenheit                     <
>     RH     - Relative Humidity in Percent                <
>     WIND   - Direction (from) and Speed in MPH           <
>     PRES   - Mean Sea Level Pressure (inches of Hg)      <
>     WCI    - Wind Chill Index                            <
>     VSB    - VISIBILITY IN MILES                         <
>     HX     - HEAT INDEX                                  <
>     TC     - TEMPERATURE IN CELSIUS                      <
>     VRB    - VARIABLE WIND DIRECTION                     <
>                                                          <
>>>>>>>>>>>>>>>>>>>>>>>>>>>> KEY <<<<<<<<<<<<<<<<<<<<<<<<<<<




USA.gov is the U.S. government's official web portal to all federal, state and local government web resources and services.